Time,TemperatureF,DewpointF,PressureIn,WindDirection,WindDirectionDegrees,WindSpeedMPH,WindSpeedGustMPH,Humidity,HourlyPrecipIn,Conditions,Clouds,dailyrainin,SoftwareType,DateUTC
2013-06-03 00:01:00,54.1,50.6,30.01,North,0,0.0,0.0,88,0.00,,,0.00,WeatherCatV1.15B25,2013-06-03 05:01:00,
2013-06-03 00:06:00,54.0,50.8,30.02,North,0,0.0,0.0,89,0.00,,,0.00,WeatherCatV1.15B25,2013-06-03 05:06:00,
2013-06-03 00:11:00,53.8,50.6,30.02,North,0,0.0,0.0,89,0.00,,,0.00,WeatherCatV1.15B25,2013-06-03 05:11:00,
2013-06-03 00:16:00,53.7,50.5,30.02,North,0,0.0,0.0,89,0.00,,,0.00,WeatherCatV1.15B25,2013-06-03 05:16:00,
2013-06-03 00:21:00,53.5,50.3,30.02,North,0,0.0,0.0,89,0.00,,,0.00,WeatherCatV1.15B25,2013-06-03 05:21:00,
2013-06-03 00:26:00,53.3,50.1,30.02,North,0,0.0,0.0,89,0.00,,,0.00,WeatherCatV1.15B25,2013-06-03 05:26:00,
2013-06-03 00:31:00,53.1,49.9,30.02,North,0,0.0,0.0,89,0.00,,,0.00,WeatherCatV1.15B25,2013-06-03 05:31:00,
2013-06-03 00:36:00,52.9,49.7,30.02,North,0,0.0,0.0,89,0.00,,,0.00,WeatherCatV1.15B25,2013-06-03 05:36:00,
2013-06-03 00:41:00,52.9,50.0,30.02,North,0,0.0,0.0,90,0.00,,,0.00,WeatherCatV1.15B25,2013-06-03 05:41:00,
2013-06-03 00:46:00,52.8,49.9,30.02,North,0,0.0,0.0,90,0.00,,,0.00,WeatherCatV1.15B25,2013-06-03 05:46:00,
2013-06-03 00:51:00,52.8,49.9,30.02,North,0,0.0,0.0,90,0.00,,,0.00,WeatherCatV1.15B25,2013-06-03 05:51:00,
2013-06-03 00:56:00,52.8,49.9,30.03,North,0,0.0,0.0,90,0.00,,,0.00,WeatherCatV1.15B25,2013-06-03 05:56:00,
2013-06-03 01:01:00,52.7,49.8,30.02,North,0,0.0,0.0,90,0.00,,,0.00,WeatherCatV1.15B25,2013-06-03 06:01:00,
2013-06-03 01:06:00,52.7,49.8,30.02,North,0,0.0,0.0,90,0.00,,,0.00,WeatherCatV1.15B25,2013-06-03 06:06:00,
2013-06-03 01:11:00,52.7,49.8,30.02,North,0,0.0,0.0,90,0.00,,,0.00,WeatherCatV1.15B25,2013-06-03 06:11:00,
2013-06-03 01:16:00,52.7,49.8,30.02,North,0,0.0,0.0,90,0.00,,,0.00,WeatherCatV1.15B25,2013-06-03 06:16:00,
2013-06-03 01:21:00,52.6,50.0,30.02,North,0,0.0,0.0,91,0.00,,,0.00,WeatherCatV1.15B25,2013-06-03 06:21:00,
2013-06-03 01:26:00,52.5,49.9,30.02,North,0,0.0,0.0,91,0.00,,,0.00,WeatherCatV1.15B25,2013-06-03 06:26:00,
2013-06-03 01:31:00,52.3,49.8,30.02,North,0,0.0,0.0,91,0.00,,,0.00,WeatherCatV1.15B25,2013-06-03 06:31:00,
2013-06-03 01:36:00,52.2,49.7,30.02,North,0,0.0,0.0,91,0.00,,,0.00,WeatherCatV1.15B25,2013-06-03 06:36:00,
2013-06-03 01:41:00,52.1,49.6,30.01,North,0,0.0,0.0,91,0.00,,,0.00,WeatherCatV1.15B25,2013-06-03 06:41:00,
2013-06-03 01:46:00,51.9,49.4,30.02,North,0,0.0,0.0,91,0.00,,,0.00,WeatherCatV1.15B25,2013-06-03 06:46:00,
2013-06-03 01:51:00,51.7,49.2,30.02,North,0,0.0,0.0,91,0.00,,,0.00,WeatherCatV1.15B25,2013-06-03 06:51:00,
2013-06-03 01:56:00,51.6,49.1,30.01,North,0,0.0,0.0,91,0.00,,,0.00,WeatherCatV1.15B25,2013-06-03 06:56:00,
2013-06-03 02:01:00,51.5,49.0,30.01,North,0,0.0,0.0,91,0.00,,,0.00,WeatherCatV1.15B25,2013-06-03 07:01:00,
2013-06-03 02:06:00,51.4,48.9,30.01,North,0,0.0,0.0,91,0.00,,,0.00,WeatherCatV1.15B25,2013-06-03 07:06:00,
2013-06-03 02:11:00,51.3,48.8,30.01,North,0,0.0,0.0,91,0.00,,,0.00,WeatherCatV1.15B25,2013-06-03 07:11:00,
2013-06-03 02:16:00,51.2,48.7,30.01,North,0,0.0,0.0,91,0.00,,,0.00,WeatherCatV1.15B25,2013-06-03 07:16:00,
2013-06-03 02:21:00,51.0,48.5,30.01,North,0,0.0,0.0,91,0.00,,,0.00,WeatherCatV1.15B25,2013-06-03 07:21:00,
2013-06-03 02:26:00,50.9,48.4,30.01,North,0,0.0,0.0,91,0.00,,,0.00,WeatherCatV1.15B25,2013-06-03 07:26:00,
2013-06-03 02:31:00,50.8,48.3,30.01,North,0,0.0,0.0,91,0.00,,,0.00,WeatherCatV1.15B25,2013-06-03 07:31:00,
2013-06-03 02:36:00,50.8,48.3,30.01,North,0,0.0,0.0,91,0.00,,,0.00,WeatherCatV1.15B25,2013-06-03 07:36:00,
2013-06-03 02:41:00,50.8,48.6,30.01,North,0,0.0,0.0,92,0.00,,,0.00,WeatherCatV1.15B25,2013-06-03 07:41:00,
2013-06-03 02:46:00,50.9,48.7,30.01,North,0,0.0,0.0,92,0.00,,,0.00,WeatherCatV1.15B25,2013-06-03 07:46:00,
2013-06-03 02:51:00,51.4,49.2,30.01,North,0,0.0,0.0,92,0.00,,,0.00,WeatherCatV1.15B25,2013-06-03 07:51:00,
2013-06-03 02:56:00,52.2,49.9,30.01,North,0,0.0,0.0,92,0.00,,,0.00,WeatherCatV1.15B25,2013-06-03 07:56:00,
2013-06-03 03:01:00,52.7,50.4,30.01,North,0,0.0,0.0,92,0.00,,,0.00,WeatherCatV1.15B25,2013-06-03 08:01:00,
2013-06-03 03:06:00,53.3,51.0,30.01,North,0,0.0,0.0,92,0.00,,,0.00,WeatherCatV1.15B25,2013-06-03 08:06:00,
2013-06-03 03:11:00,54.0,51.7,30.01,East,98,0.0,0.0,92,0.00,,,0.00,WeatherCatV1.15B25,2013-06-03 08:11:00,
2013-06-03 03:16:00,54.4,52.1,30.01,North,0,0.0,0.0,92,0.00,,,0.00,WeatherCatV1.15B25,2013-06-03 08:16:00,
2013-06-03 03:21:00,54.7,52.4,30.01,North,0,0.0,0.0,92,0.00,,,0.00,WeatherCatV1.15B25,2013-06-03 08:21:00,
2013-06-03 03:26:00,54.9,52.6,30.01,North,0,0.0,0.0,92,0.00,,,0.00,WeatherCatV1.15B25,2013-06-03 08:26:00,
2013-06-03 03:31:00,55.1,52.8,30.01,North,0,0.0,0.0,92,0.00,,,0.00,WeatherCatV1.15B25,2013-06-03 08:31:00,
2013-06-03 03:36:00,55.1,52.8,30.02,North,0,0.0,0.0,92,0.00,,,0.00,WeatherCatV1.15B25,2013-06-03 08:36:00,
2013-06-03 03:41:00,55.1,52.5,30.02,North,0,0.0,0.0,91,0.00,,,0.00,WeatherCatV1.15B25,2013-06-03 08:41:00,
2013-06-03 03:46:00,54.9,52.3,30.02,North,0,0.0,0.0,91,0.00,,,0.00,WeatherCatV1.15B25,2013-06-03 08:46:00,
2013-06-03 03:51:00,54.8,52.2,30.02,North,0,0.0,0.0,91,0.00,,,0.00,WeatherCatV1.15B25,2013-06-03 08:51:00,
2013-06-03 03:56:00,54.6,52.0,30.02,North,0,0.0,0.0,91,0.00,,,0.00,WeatherCatV1.15B25,2013-06-03 08:56:00,
2013-06-03 04:01:00,54.4,51.8,30.02,North,0,0.0,0.0,91,0.00,,,0.00,WeatherCatV1.15B25,2013-06-03 09:01:00,
2013-06-03 04:06:00,53.9,51.3,30.02,North,0,0.0,0.0,91,0.00,,,0.00,WeatherCatV1.15B25,2013-06-03 09:06:00,
2013-06-03 04:11:00,53.4,50.8,30.01,North,0,0.0,0.0,91,0.00,,,0.00,WeatherCatV1.15B25,2013-06-03 09:11:00,
2013-06-03 04:16:00,53.2,50.6,30.01,North,0,0.0,0.0,91,0.00,,,0.00,WeatherCatV1.15B25,2013-06-03 09:16:00,
2013-06-03 04:21:00,53.3,50.7,30.01,North,0,0.0,0.0,91,0.00,,,0.00,WeatherCatV1.15B25,2013-06-03 09:21:00,
2013-06-03 04:26:00,53.6,51.0,30.01,East,98,0.0,0.0,91,0.00,,,0.00,WeatherCatV1.15B25,2013-06-03 09:26:00,
2013-06-03 04:31:00,53.9,51.3,30.01,North,0,0.0,0.0,91,0.00,,,0.00,WeatherCatV1.15B25,2013-06-03 09:31:00,
2013-06-03 04:36:00,54.0,51.4,30.01,North,0,0.0,0.0,91,0.00,,,0.00,WeatherCatV1.15B25,2013-06-03 09:36:00,
2013-06-03 04:41:00,54.1,51.5,30.01,North,0,0.0,0.0,91,0.00,,,0.00,WeatherCatV1.15B25,2013-06-03 09:41:00,
2013-06-03 04:46:00,54.1,51.5,30.01,North,0,0.0,0.0,91,0.00,,,0.00,WeatherCatV1.15B25,2013-06-03 09:46:00,
2013-06-03 04:51:00,54.0,51.4,30.01,North,0,0.0,0.0,91,0.00,,,0.00,WeatherCatV1.15B25,2013-06-03 09:51:00,
2013-06-03 04:56:00,53.9,51.3,30.01,North,0,0.0,0.0,91,0.00,,,0.00,WeatherCatV1.15B25,2013-06-03 09:56:00,
2013-06-03 05:01:00,53.8,51.2,30.01,North,0,0.0,0.0,91,0.00,,,0.00,WeatherCatV1.15B25,2013-06-03 10:01:00,
2013-06-03 05:06:00,53.8,51.2,30.02,North,0,0.0,0.0,91,0.00,,,0.00,WeatherCatV1.15B25,2013-06-03 10:06:00,
2013-06-03 05:11:00,53.6,51.0,30.02,North,0,0.0,0.0,91,0.00,,,0.00,WeatherCatV1.15B25,2013-06-03 10:11:00,
2013-06-03 05:16:00,53.2,50.6,30.02,North,0,0.0,0.0,91,0.00,,,0.00,WeatherCatV1.15B25,2013-06-03 10:16:00,
2013-06-03 05:21:00,52.7,50.1,30.02,North,0,0.0,0.0,91,0.00,,,0.00,WeatherCatV1.15B25,2013-06-03 10:21:00,
2013-06-03 05:26:00,52.2,49.7,30.02,North,0,0.0,0.0,91,0.00,,,0.00,WeatherCatV1.15B25,2013-06-03 10:26:00,
2013-06-03 05:31:00,51.8,49.3,30.02,North,0,0.0,0.0,91,0.00,,,0.00,WeatherCatV1.15B25,2013-06-03 10:31:00,
2013-06-03 05:36:00,51.5,49.0,30.02,North,0,0.0,0.0,91,0.00,,,0.00,WeatherCatV1.15B25,2013-06-03 10:36:00,
2013-06-03 05:41:00,51.4,48.9,30.02,North,0,0.0,0.0,91,0.00,,,0.00,WeatherCatV1.15B25,2013-06-03 10:41:00,
2013-06-03 05:46:00,51.3,48.8,30.02,North,0,0.0,0.0,91,0.00,,,0.00,WeatherCatV1.15B25,2013-06-03 10:46:00,
2013-06-03 05:51:00,51.3,48.8,30.01,North,0,0.0,0.0,91,0.00,,,0.00,WeatherCatV1.15B25,2013-06-03 10:51:00,
2013-06-03 05:56:00,51.2,48.7,30.01,North,0,0.0,0.0,91,0.00,,,0.00,WeatherCatV1.15B25,2013-06-03 10:56:00,
2013-06-03 06:01:00,51.1,48.6,30.02,North,0,0.0,0.0,91,0.00,,,0.00,WeatherCatV1.15B25,2013-06-03 11:01:00,
2013-06-03 06:06:00,50.9,48.4,30.01,North,0,0.0,0.0,91,0.00,,,0.00,WeatherCatV1.15B25,2013-06-03 11:06:00,
2013-06-03 06:11:00,50.7,48.2,30.01,North,0,0.0,0.0,91,0.00,,,0.00,WeatherCatV1.15B25,2013-06-03 11:11:00,
2013-06-03 06:16:00,50.5,48.0,30.02,North,0,0.0,0.0,91,0.00,,,0.00,WeatherCatV1.15B25,2013-06-03 11:16:00,
2013-06-03 06:21:00,50.4,47.9,30.02,North,0,0.0,0.0,91,0.00,,,0.00,WeatherCatV1.15B25,2013-06-03 11:21:00,
2013-06-03 06:26:00,50.3,47.8,30.02,North,0,0.0,0.0,91,0.00,,,0.00,WeatherCatV1.15B25,2013-06-03 11:26:00,
2013-06-03 06:31:00,50.3,47.8,30.01,North,0,0.0,0.0,91,0.00,,,0.00,WeatherCatV1.15B25,2013-06-03 11:31:00,
2013-06-03 06:36:00,50.3,47.8,30.02,North,0,0.0,0.0,91,0.00,,,0.00,WeatherCatV1.15B25,2013-06-03 11:36:00,
2013-06-03 06:41:00,50.4,48.2,30.02,East,99,0.0,0.0,92,0.00,,,0.00,WeatherCatV1.15B25,2013-06-03 11:41:00,
2013-06-03 06:46:00,50.6,48.4,30.02,East,98,0.0,0.0,92,0.00,,,0.00,WeatherCatV1.15B25,2013-06-03 11:46:00,
2013-06-03 06:51:00,50.7,48.5,30.02,East,98,0.0,0.0,92,0.00,,,0.00,WeatherCatV1.15B25,2013-06-03 11:51:00,
2013-06-03 06:56:00,50.9,48.7,30.02,North,0,0.0,0.0,92,0.00,,,0.00,WeatherCatV1.15B25,2013-06-03 11:56:00,
2013-06-03 07:01:00,51.4,49.2,30.02,North,0,0.0,0.0,92,0.00,,,0.00,WeatherCatV1.15B25,2013-06-03 12:01:00,
2013-06-03 07:06:00,52.0,49.7,30.02,North,0,0.0,0.0,92,0.00,,,0.00,WeatherCatV1.15B25,2013-06-03 12:06:00,
2013-06-03 07:11:00,53.0,50.7,30.01,North,0,0.0,0.0,92,0.00,,,0.00,WeatherCatV1.15B25,2013-06-03 12:11:00,
2013-06-03 07:16:00,54.3,52.3,30.01,North,0,0.0,0.0,93,0.00,,,0.00,WeatherCatV1.15B25,2013-06-03 12:16:00,
2013-06-03 07:21:00,55.9,53.9,30.01,NE,49,0.0,0.0,93,0.00,,,0.00,WeatherCatV1.15B25,2013-06-03 12:21:00,
2013-06-03 07:26:00,56.8,54.8,30.01,NE,50,0.0,0.0,93,0.00,,,0.00,WeatherCatV1.15B25,2013-06-03 12:26:00,
2013-06-03 07:31:00,57.6,55.6,30.01,North,0,0.0,0.0,93,0.00,,,0.00,WeatherCatV1.15B25,2013-06-03 12:31:00,
2013-06-03 07:36:00,58.3,56.3,30.01,North,0,0.0,0.0,93,0.00,,,0.00,WeatherCatV1.15B25,2013-06-03 12:36:00,
2013-06-03 07:41:00,58.6,56.3,30.00,North,0,0.0,0.0,92,0.00,,,0.00,WeatherCatV1.15B25,2013-06-03 12:41:00,
2013-06-03 07:46:00,59.0,56.7,30.00,North,0,0.0,0.0,92,0.00,,,0.00,WeatherCatV1.15B25,2013-06-03 12:46:00,
2013-06-03 07:51:00,59.0,56.4,30.00,North,0,0.0,0.0,91,0.00,,,0.00,WeatherCatV1.15B25,2013-06-03 12:51:00,
2013-06-03 07:56:00,59.6,57.0,30.00,ESE,120,0.0,0.0,91,0.00,,,0.00,WeatherCatV1.15B25,2013-06-03 12:56:00,
2013-06-03 08:01:00,60.4,57.5,30.00,North,0,0.0,0.0,90,0.00,,,0.00,WeatherCatV1.15B25,2013-06-03 13:01:00,
2013-06-03 08:06:00,61.2,57.9,30.00,North,0,0.0,0.0,89,0.00,,,0.00,WeatherCatV1.15B25,2013-06-03 13:06:00,
2013-06-03 08:11:00,61.7,58.1,29.99,North,0,0.0,2.0,88,0.00,,,0.00,WeatherCatV1.15B25,2013-06-03 13:11:00,
2013-06-03 08:16:00,62.3,58.1,30.00,North,0,0.0,2.0,86,0.00,,,0.00,WeatherCatV1.15B25,2013-06-03 13:16:00,
2013-06-03 08:21:00,62.9,58.3,30.00,North,0,0.0,0.0,85,0.00,,,0.00,WeatherCatV1.15B25,2013-06-03 13:21:00,
2013-06-03 08:26:00,63.5,58.6,30.00,North,0,0.0,0.0,84,0.00,,,0.00,WeatherCatV1.15B25,2013-06-03 13:26:00,
2013-06-03 08:31:00,63.9,58.3,30.00,North,0,0.0,0.0,82,0.00,,,0.00,WeatherCatV1.15B25,2013-06-03 13:31:00,
2013-06-03 08:36:00,64.1,58.1,30.00,North,0,0.0,0.0,81,0.00,,,0.00,WeatherCatV1.15B25,2013-06-03 13:36:00,
2013-06-03 08:41:00,64.7,58.7,30.00,North,0,0.0,0.0,81,0.00,,,0.00,WeatherCatV1.15B25,2013-06-03 13:41:00,
2013-06-03 08:46:00,65.4,59.1,30.00,North,0,0.0,0.0,80,0.00,,,0.00,WeatherCatV1.15B25,2013-06-03 13:46:00,
2013-06-03 08:51:00,65.8,59.1,30.00,North,0,0.0,0.0,79,0.00,,,0.00,WeatherCatV1.15B25,2013-06-03 13:51:00,
2013-06-03 08:56:00,66.3,58.9,30.01,North,0,0.0,0.0,77,0.00,,,0.00,WeatherCatV1.15B25,2013-06-03 13:56:00,
2013-06-03 09:01:00,66.9,59.1,30.01,North,0,0.0,0.0,76,0.00,,,0.00,WeatherCatV1.15B25,2013-06-03 14:01:00,
2013-06-03 09:06:00,67.2,59.0,30.01,North,0,0.0,0.0,75,0.00,,,0.00,WeatherCatV1.15B25,2013-06-03 14:06:00,
2013-06-03 09:11:00,67.4,58.8,30.00,North,0,0.0,0.0,74,0.00,,,0.00,WeatherCatV1.15B25,2013-06-03 14:11:00,
2013-06-03 09:16:00,67.6,59.0,30.01,North,0,0.0,2.0,74,0.00,,,0.00,WeatherCatV1.15B25,2013-06-03 14:16:00,
2013-06-03 09:21:00,68.0,59.8,30.01,North,0,0.0,0.0,75,0.00,,,0.00,WeatherCatV1.15B25,2013-06-03 14:21:00,
2013-06-03 09:26:00,68.5,59.5,30.01,SSW,202,0.0,0.0,73,0.00,,,0.00,WeatherCatV1.15B25,2013-06-03 14:26:00,
2013-06-03 09:31:00,69.1,60.1,30.00,North,0,0.0,0.0,73,0.00,,,0.00,WeatherCatV1.15B25,2013-06-03 14:31:00,
2013-06-03 09:36:00,69.5,60.1,30.00,North,0,0.0,0.0,72,0.00,,,0.00,WeatherCatV1.15B25,2013-06-03 14:36:00,
2013-06-03 09:41:00,70.2,60.3,30.00,North,0,0.0,2.0,71,0.00,,,0.00,WeatherCatV1.15B25,2013-06-03 14:41:00,
2013-06-03 09:46:00,70.7,60.0,30.00,North,0,0.0,8.0,69,0.00,,,0.00,WeatherCatV1.15B25,2013-06-03 14:46:00,
2013-06-03 09:51:00,71.2,60.5,30.00,North,0,0.0,0.0,69,0.00,,,0.00,WeatherCatV1.15B25,2013-06-03 14:51:00,
2013-06-03 09:56:00,71.7,60.6,30.00,North,0,0.0,0.0,68,0.00,,,0.00,WeatherCatV1.15B25,2013-06-03 14:56:00,
2013-06-03 10:01:00,71.7,60.6,30.00,North,0,0.0,0.0,68,0.00,,,0.00,WeatherCatV1.15B25,2013-06-03 15:01:00,
2013-06-03 10:06:00,72.2,60.6,30.00,North,0,0.0,0.0,67,0.00,,,0.00,WeatherCatV1.15B25,2013-06-03 15:06:00,
2013-06-03 10:11:00,72.6,61.0,30.00,SE,142,0.0,0.0,67,0.00,,,0.00,WeatherCatV1.15B25,2013-06-03 15:11:00,
2013-06-03 10:16:00,72.5,60.5,29.99,North,0,0.0,0.0,66,0.00,,,0.00,WeatherCatV1.15B25,2013-06-03 15:16:00,
2013-06-03 10:21:00,72.6,60.6,29.99,North,0,0.0,0.0,66,0.00,,,0.00,WeatherCatV1.15B25,2013-06-03 15:21:00,
2013-06-03 10:26:00,72.9,60.9,29.99,North,0,0.0,0.0,66,0.00,,,0.00,WeatherCatV1.15B25,2013-06-03 15:26:00,
2013-06-03 10:31:00,73.5,61.9,29.99,North,0,0.0,0.0,67,0.00,,,0.00,WeatherCatV1.15B25,2013-06-03 15:31:00,
2013-06-03 10:36:00,74.2,61.7,29.99,North,0,0.0,0.0,65,0.00,,,0.00,WeatherCatV1.15B25,2013-06-03 15:36:00,
2013-06-03 10:41:00,74.6,61.6,29.98,North,0,0.0,0.0,64,0.00,,,0.00,WeatherCatV1.15B25,2013-06-03 15:41:00,
2013-06-03 10:46:00,74.4,60.5,29.98,North,0,0.0,0.0,62,0.00,,,0.00,WeatherCatV1.15B25,2013-06-03 15:46:00,
2013-06-03 10:51:00,74.5,61.5,29.99,North,0,0.0,0.0,64,0.00,,,0.00,WeatherCatV1.15B25,2013-06-03 15:51:00,
2013-06-03 10:56:00,75.0,62.4,29.98,North,0,0.0,0.0,65,0.00,,,0.00,WeatherCatV1.15B25,2013-06-03 15:56:00,
2013-06-03 11:01:00,75.2,61.3,29.98,North,0,0.0,4.0,62,0.00,,,0.00,WeatherCatV1.15B25,2013-06-03 16:01:00,
2013-06-03 11:06:00,75.6,61.2,29.98,North,0,0.0,0.0,61,0.00,,,0.00,WeatherCatV1.15B25,2013-06-03 16:06:00,
2013-06-03 11:11:00,75.6,60.7,29.98,North,0,8.0,8.0,60,0.00,,,0.00,WeatherCatV1.15B25,2013-06-03 16:11:00,
2013-06-03 11:16:00,75.4,61.0,29.98,North,0,0.0,0.0,61,0.00,,,0.00,WeatherCatV1.15B25,2013-06-03 16:16:00,
2013-06-03 11:21:00,75.3,61.4,29.98,North,0,0.0,2.0,62,0.00,,,0.00,WeatherCatV1.15B25,2013-06-03 16:21:00,
2013-06-03 11:26:00,75.5,62.0,29.98,North,0,0.0,0.0,63,0.00,,,0.00,WeatherCatV1.15B25,2013-06-03 16:26:00,
2013-06-03 11:31:00,75.9,62.4,29.98,North,0,0.0,0.0,63,0.00,,,0.00,WeatherCatV1.15B25,2013-06-03 16:31:00,
2013-06-03 11:36:00,76.3,62.3,29.98,North,0,0.0,0.0,62,0.00,,,0.00,WeatherCatV1.15B25,2013-06-03 16:36:00,
2013-06-03 11:41:00,76.6,62.1,29.98,ESE,119,0.0,0.0,61,0.00,,,0.00,WeatherCatV1.15B25,2013-06-03 16:41:00,
2013-06-03 11:46:00,76.6,62.1,29.98,North,0,0.0,4.0,61,0.00,,,0.00,WeatherCatV1.15B25,2013-06-03 16:46:00,
2013-06-03 11:51:00,76.4,61.0,29.98,North,0,0.0,0.0,59,0.00,,,0.00,WeatherCatV1.15B25,2013-06-03 16:51:00,
2013-06-03 11:56:00,76.7,61.7,29.98,North,0,0.0,4.0,60,0.00,,,0.00,WeatherCatV1.15B25,2013-06-03 16:56:00,
2013-06-03 12:01:00,77.1,62.1,29.98,North,0,0.0,4.0,60,0.00,,,0.00,WeatherCatV1.15B25,2013-06-03 17:01:00,
2013-06-03 12:06:00,77.6,62.6,29.97,North,0,0.0,0.0,60,0.00,,,0.00,WeatherCatV1.15B25,2013-06-03 17:06:00,
2013-06-03 12:11:00,78.2,62.2,29.97,North,0,0.0,6.0,58,0.00,,,0.00,WeatherCatV1.15B25,2013-06-03 17:11:00,
2013-06-03 12:16:00,78.5,62.0,29.97,North,0,0.0,10.0,57,0.00,,,0.00,WeatherCatV1.15B25,2013-06-03 17:16:00,
2013-06-03 12:21:00,78.7,62.2,29.97,North,0,0.0,0.0,57,0.00,,,0.00,WeatherCatV1.15B25,2013-06-03 17:21:00,
2013-06-03 12:26:00,78.7,62.2,29.97,North,0,0.0,2.0,57,0.00,,,0.00,WeatherCatV1.15B25,2013-06-03 17:26:00,
2013-06-03 12:31:00,79.1,62.5,29.96,North,0,0.0,4.0,57,0.00,,,0.00,WeatherCatV1.15B25,2013-06-03 17:31:00,
2013-06-03 12:36:00,79.3,62.7,29.96,North,0,0.0,0.0,57,0.00,,,0.00,WeatherCatV1.15B25,2013-06-03 17:36:00,
2013-06-03 12:41:00,79.4,61.8,29.96,North,0,2.0,6.0,55,0.00,,,0.00,WeatherCatV1.15B25,2013-06-03 17:41:00,
2013-06-03 12:46:00,79.6,62.0,29.95,North,0,0.0,0.0,55,0.00,,,0.00,WeatherCatV1.15B25,2013-06-03 17:46:00,
2013-06-03 12:51:00,79.8,61.7,29.95,North,0,0.0,10.0,54,0.00,,,0.00,WeatherCatV1.15B25,2013-06-03 17:51:00,
2013-06-03 12:56:00,80.1,62.4,29.95,ESE,103,0.0,0.0,55,0.00,,,0.00,WeatherCatV1.15B25,2013-06-03 17:56:00,
2013-06-03 13:01:00,80.4,62.7,29.95,North,0,0.0,14.0,55,0.00,,,0.00,WeatherCatV1.15B25,2013-06-03 18:01:00,
2013-06-03 13:06:00,80.5,61.8,29.95,North,0,0.0,0.0,53,0.00,,,0.00,WeatherCatV1.15B25,2013-06-03 18:06:00,
2013-06-03 13:11:00,80.7,62.5,29.94,North,0,0.0,4.0,54,0.00,,,0.00,WeatherCatV1.15B25,2013-06-03 18:11:00,
2013-06-03 13:16:00,81.1,61.2,29.94,North,0,4.0,6.0,51,0.00,,,0.00,WeatherCatV1.15B25,2013-06-03 18:16:00,
2013-06-03 13:21:00,81.1,60.7,29.95,North,0,0.0,2.0,50,0.00,,,0.00,WeatherCatV1.15B25,2013-06-03 18:21:00,
2013-06-03 13:26:00,81.0,61.7,29.94,North,0,0.0,8.0,52,0.00,,,0.00,WeatherCatV1.15B25,2013-06-03 18:26:00,
2013-06-03 13:31:00,81.3,63.0,29.94,North,0,0.0,2.0,54,0.00,,,0.00,WeatherCatV1.15B25,2013-06-03 18:31:00,
2013-06-03 13:36:00,82.0,63.2,29.94,North,0,0.0,0.0,53,0.00,,,0.00,WeatherCatV1.15B25,2013-06-03 18:36:00,
2013-06-03 13:41:00,82.0,60.9,29.94,North,0,0.0,4.0,49,0.00,,,0.00,WeatherCatV1.15B25,2013-06-03 18:41:00,
2013-06-03 13:46:00,81.9,61.4,29.94,North,0,0.0,6.0,50,0.00,,,0.00,WeatherCatV1.15B25,2013-06-03 18:46:00,
2013-06-03 13:51:00,82.0,61.5,29.93,North,0,0.0,8.0,50,0.00,,,0.00,WeatherCatV1.15B25,2013-06-03 18:51:00,
2013-06-03 13:56:00,81.9,61.4,29.93,North,0,0.0,6.0,50,0.00,,,0.00,WeatherCatV1.15B25,2013-06-03 18:56:00,
2013-06-03 14:01:00,81.9,63.1,29.93,North,0,0.0,0.0,53,0.00,,,0.00,WeatherCatV1.15B25,2013-06-03 19:01:00,
2013-06-03 14:06:00,82.5,63.1,29.92,North,0,0.0,2.0,52,0.00,,,0.00,WeatherCatV1.15B25,2013-06-03 19:06:00,
2013-06-03 14:11:00,83.4,63.3,29.92,North,0,0.0,4.0,51,0.00,,,0.00,WeatherCatV1.15B25,2013-06-03 19:11:00,
2013-06-03 14:16:00,83.8,64.3,29.92,North,0,0.0,4.0,52,0.00,,,0.00,WeatherCatV1.15B25,2013-06-03 19:16:00,
2013-06-03 14:21:00,83.9,63.2,29.92,North,0,0.0,0.0,50,0.00,,,0.00,WeatherCatV1.15B25,2013-06-03 19:21:00,
2013-06-03 14:26:00,83.4,62.8,29.91,North,0,0.0,0.0,50,0.00,,,0.00,WeatherCatV1.15B25,2013-06-03 19:26:00,
2013-06-03 14:31:00,83.2,62.6,29.91,North,0,0.0,8.0,50,0.00,,,0.00,WeatherCatV1.15B25,2013-06-03 19:31:00,
2013-06-03 14:36:00,83.4,63.3,29.91,North,0,0.0,2.0,51,0.00,,,0.00,WeatherCatV1.15B25,2013-06-03 19:36:00,
2013-06-03 14:41:00,83.7,63.6,29.91,North,0,0.0,0.0,51,0.00,,,0.00,WeatherCatV1.15B25,2013-06-03 19:41:00,
2013-06-03 14:46:00,83.8,62.6,29.91,North,0,0.0,10.0,49,0.00,,,0.00,WeatherCatV1.15B25,2013-06-03 19:46:00,
2013-06-03 14:51:00,84.1,63.4,29.90,North,0,0.0,4.0,50,0.00,,,0.00,WeatherCatV1.15B25,2013-06-03 19:51:00,
2013-06-03 14:56:00,84.5,63.2,29.90,North,0,0.0,8.0,49,0.00,,,0.00,WeatherCatV1.15B25,2013-06-03 19:56:00,
2013-06-03 15:01:00,84.8,61.7,29.90,North,0,4.0,4.0,46,0.00,,,0.00,WeatherCatV1.15B25,2013-06-03 20:01:00,
2013-06-03 15:06:00,84.8,62.3,29.89,North,0,0.0,8.0,47,0.00,,,0.00,WeatherCatV1.15B25,2013-06-03 20:06:00,
2013-06-03 15:11:00,84.8,63.5,29.89,North,0,0.0,0.0,49,0.00,,,0.00,WeatherCatV1.15B25,2013-06-03 20:11:00,
2013-06-03 15:16:00,84.8,64.1,29.89,North,0,0.0,0.0,50,0.00,,,0.00,WeatherCatV1.15B25,2013-06-03 20:16:00,
2013-06-03 15:21:00,85.0,63.7,29.89,North,0,0.0,8.0,49,0.00,,,0.00,WeatherCatV1.15B25,2013-06-03 20:21:00,
2013-06-03 15:26:00,85.3,64.5,29.89,North,0,0.0,0.0,50,0.00,,,0.00,WeatherCatV1.15B25,2013-06-03 20:26:00,
2013-06-03 15:30:00,85.5,64.1,29.89,North,0,0.0,0.0,49,0.00,,,0.00,WeatherCatV1.15B25,2013-06-03 20:30:00,
2013-06-03 15:31:00,85.6,63.6,29.89,North,0,4.0,8.0,48,0.00,,,0.00,WeatherCatV1.15B25,2013-06-03 20:31:00,
2013-06-03 15:36:00,85.7,64.3,29.89,North,0,0.0,6.0,49,0.00,,,0.00,WeatherCatV1.15B25,2013-06-03 20:36:00,
2013-06-03 15:41:00,85.5,63.5,29.89,North,0,0.0,6.0,48,0.00,,,0.00,WeatherCatV1.15B25,2013-06-03 20:41:00,
2013-06-03 15:46:00,85.6,64.2,29.88,ESE,115,0.0,6.0,49,0.00,,,0.00,WeatherCatV1.15B25,2013-06-03 20:46:00,
2013-06-03 15:51:00,85.5,63.5,29.88,North,0,0.0,6.0,48,0.00,,,0.00,WeatherCatV1.15B25,2013-06-03 20:51:00,
2013-06-03 15:56:00,85.6,63.6,29.88,North,0,0.0,2.0,48,0.00,,,0.00,WeatherCatV1.15B25,2013-06-03 20:56:00,
2013-06-03 16:01:00,85.8,63.8,29.88,ESE,119,0.0,4.0,48,0.00,,,0.00,WeatherCatV1.15B25,2013-06-03 21:01:00,
2013-06-03 16:06:00,85.9,63.3,29.88,North,0,4.0,14.0,47,0.00,,,0.00,WeatherCatV1.15B25,2013-06-03 21:06:00,
2013-06-03 16:11:00,86.2,64.2,29.87,North,0,0.0,8.0,48,0.00,,,0.00,WeatherCatV1.15B25,2013-06-03 21:11:00,
2013-06-03 16:16:00,86.8,63.5,29.87,North,0,0.0,16.0,46,0.00,,,0.00,WeatherCatV1.15B25,2013-06-03 21:16:00,
2013-06-03 16:21:00,86.9,64.2,29.87,North,0,4.0,4.0,47,0.00,,,0.00,WeatherCatV1.15B25,2013-06-03 21:21:00,
2013-06-03 16:26:00,86.3,64.3,29.87,West,269,0.0,8.0,48,0.00,,,0.00,WeatherCatV1.15B25,2013-06-03 21:26:00,
2013-06-03 16:31:00,85.9,63.9,29.86,North,0,0.0,8.0,48,0.00,,,0.00,WeatherCatV1.15B25,2013-06-03 21:31:00,
2013-06-03 16:36:00,85.8,63.8,29.86,North,0,2.0,8.0,48,0.00,,,0.00,WeatherCatV1.15B25,2013-06-03 21:36:00,
2013-06-03 16:41:00,86.0,64.0,29.86,North,0,8.0,10.0,48,0.00,,,0.00,WeatherCatV1.15B25,2013-06-03 21:41:00,
2013-06-03 16:46:00,85.9,63.9,29.86,North,0,0.0,8.0,48,0.00,,,0.00,WeatherCatV1.15B25,2013-06-03 21:46:00,
2013-06-03 16:51:00,85.7,64.3,29.86,North,0,0.0,14.0,49,0.00,,,0.00,WeatherCatV1.15B25,2013-06-03 21:51:00,
2013-06-03 16:56:00,85.7,64.3,29.86,North,0,0.0,0.0,49,0.00,,,0.00,WeatherCatV1.15B25,2013-06-03 21:56:00,
2013-06-03 17:01:00,85.8,64.4,29.85,North,0,0.0,0.0,49,0.00,,,0.00,WeatherCatV1.15B25,2013-06-03 22:01:00,
2013-06-03 17:06:00,85.8,63.8,29.85,North,0,0.0,8.0,48,0.00,,,0.00,WeatherCatV1.15B25,2013-06-03 22:06:00,
2013-06-03 17:11:00,85.9,64.5,29.85,North,0,0.0,2.0,49,0.00,,,0.00,WeatherCatV1.15B25,2013-06-03 22:11:00,
2013-06-03 17:16:00,85.6,63.6,29.85,North,0,4.0,16.0,48,0.00,,,0.00,WeatherCatV1.15B25,2013-06-03 22:16:00,
2013-06-03 17:21:00,85.4,64.6,29.85,North,0,2.0,14.0,50,0.00,,,0.00,WeatherCatV1.15B25,2013-06-03 22:21:00,
2013-06-03 17:26:00,85.6,64.2,29.85,North,0,0.0,6.0,49,0.00,,,0.00,WeatherCatV1.15B25,2013-06-03 22:26:00,
2013-06-03 17:31:00,85.6,64.8,29.85,North,0,4.0,12.0,50,0.00,,,0.00,WeatherCatV1.15B25,2013-06-03 22:31:00,
2013-06-03 17:36:00,85.5,64.7,29.84,North,0,0.0,4.0,50,0.00,,,0.00,WeatherCatV1.15B25,2013-06-03 22:36:00,
2013-06-03 17:41:00,85.4,64.6,29.84,North,0,2.0,4.0,50,0.00,,,0.00,WeatherCatV1.15B25,2013-06-03 22:41:00,
2013-06-03 17:46:00,85.0,64.2,29.84,North,0,0.0,10.0,50,0.00,,,0.00,WeatherCatV1.15B25,2013-06-03 22:46:00,
2013-06-03 17:51:00,85.0,63.7,29.84,North,0,0.0,8.0,49,0.00,,,0.00,WeatherCatV1.15B25,2013-06-03 22:51:00,
2013-06-03 17:56:00,85.1,63.8,29.84,North,0,0.0,4.0,49,0.00,,,0.00,WeatherCatV1.15B25,2013-06-03 22:56:00,
2013-06-03 18:01:00,85.0,62.5,29.83,North,0,2.0,12.0,47,0.00,,,0.00,WeatherCatV1.15B25,2013-06-03 23:01:00,
2013-06-03 18:06:00,84.7,62.8,29.83,North,0,0.0,12.0,48,0.00,,,0.00,WeatherCatV1.15B25,2013-06-03 23:06:00,
2013-06-03 18:11:00,84.1,62.8,29.83,North,0,0.0,6.0,49,0.00,,,0.00,WeatherCatV1.15B25,2013-06-03 23:11:00,
2013-06-03 18:16:00,84.0,62.8,29.83,North,0,4.0,12.0,49,0.00,,,0.00,WeatherCatV1.15B25,2013-06-03 23:16:00,
2013-06-03 18:21:00,83.8,62.6,29.83,North,0,0.0,14.0,49,0.00,,,0.00,WeatherCatV1.15B25,2013-06-03 23:21:00,
2013-06-03 18:26:00,83.6,63.0,29.83,North,0,0.0,8.0,50,0.00,,,0.00,WeatherCatV1.15B25,2013-06-03 23:26:00,
2013-06-03 18:31:00,83.6,63.0,29.83,North,0,0.0,10.0,50,0.00,,,0.00,WeatherCatV1.15B25,2013-06-03 23:31:00,
2013-06-03 18:36:00,83.5,62.9,29.83,North,0,0.0,6.0,50,0.00,,,0.00,WeatherCatV1.15B25,2013-06-03 23:36:00,
2013-06-03 18:41:00,83.5,64.0,29.83,North,0,0.0,4.0,52,0.00,,,0.00,WeatherCatV1.15B25,2013-06-03 23:41:00,
2013-06-03 18:46:00,83.6,64.1,29.83,North,0,0.0,4.0,52,0.00,,,0.00,WeatherCatV1.15B25,2013-06-03 23:46:00,
2013-06-03 18:51:00,83.6,63.5,29.83,North,0,0.0,8.0,51,0.00,,,0.00,WeatherCatV1.15B25,2013-06-03 23:51:00,
2013-06-03 18:56:00,83.4,64.4,29.83,North,0,0.0,2.0,53,0.00,,,0.00,WeatherCatV1.15B25,2013-06-03 23:56:00,
2013-06-03 19:01:00,83.1,64.2,29.83,North,0,0.0,4.0,53,0.00,,,0.00,WeatherCatV1.15B25,2013-06-04 00:01:00,
2013-06-03 19:06:00,82.7,64.3,29.83,North,0,0.0,0.0,54,0.00,,,0.00,WeatherCatV1.15B25,2013-06-04 00:06:00,
2013-06-03 19:11:00,82.4,64.6,29.83,North,0,2.0,4.0,55,0.00,,,0.00,WeatherCatV1.15B25,2013-06-04 00:11:00,
2013-06-03 19:16:00,81.8,64.5,29.83,North,0,0.0,6.0,56,0.00,,,0.00,WeatherCatV1.15B25,2013-06-04 00:16:00,
2013-06-03 19:21:00,81.2,64.5,29.82,North,0,0.0,2.0,57,0.00,,,0.00,WeatherCatV1.15B25,2013-06-04 00:21:00,
2013-06-03 19:26:00,80.6,64.9,29.83,North,0,0.0,8.0,59,0.00,,,0.00,WeatherCatV1.15B25,2013-06-04 00:26:00,
2013-06-03 19:31:00,79.8,64.7,29.82,North,0,0.0,6.0,60,0.00,,,0.00,WeatherCatV1.15B25,2013-06-04 00:31:00,
2013-06-03 19:36:00,79.0,64.8,29.82,North,0,0.0,4.0,62,0.00,,,0.00,WeatherCatV1.15B25,2013-06-04 00:36:00,
2013-06-03 19:41:00,78.4,65.2,29.82,North,0,0.0,6.0,64,0.00,,,0.00,WeatherCatV1.15B25,2013-06-04 00:41:00,
2013-06-03 19:46:00,78.0,65.3,29.82,North,0,0.0,0.0,65,0.00,,,0.00,WeatherCatV1.15B25,2013-06-04 00:46:00,
2013-06-03 19:51:00,77.8,65.1,29.82,North,0,0.0,0.0,65,0.00,,,0.00,WeatherCatV1.15B25,2013-06-04 00:51:00,
2013-06-03 19:56:00,77.7,65.4,29.82,North,0,0.0,0.0,66,0.00,,,0.00,WeatherCatV1.15B25,2013-06-04 00:56:00,
2013-06-03 20:01:00,77.4,65.1,29.83,North,0,0.0,0.0,66,0.00,,,0.00,WeatherCatV1.15B25,2013-06-04 01:01:00,
2013-06-03 20:06:00,77.2,65.4,29.82,North,0,0.0,0.0,67,0.00,,,0.00,WeatherCatV1.15B25,2013-06-04 01:06:00,
2013-06-03 20:11:00,76.9,65.1,29.82,North,0,0.0,4.0,67,0.00,,,0.00,WeatherCatV1.15B25,2013-06-04 01:11:00,
2013-06-03 20:16:00,76.7,64.9,29.82,SE,125,0.0,0.0,67,0.00,,,0.00,WeatherCatV1.15B25,2013-06-04 01:16:00,
2013-06-03 20:21:00,76.3,64.9,29.82,North,0,0.0,8.0,68,0.00,,,0.00,WeatherCatV1.15B25,2013-06-04 01:21:00,
2013-06-03 20:26:00,76.0,64.7,29.82,North,355,0.0,0.0,68,0.00,,,0.00,WeatherCatV1.15B25,2013-06-04 01:26:00,
2013-06-03 20:31:00,75.7,64.4,29.82,North,0,0.0,2.0,68,0.00,,,0.00,WeatherCatV1.15B25,2013-06-04 01:31:00,
2013-06-03 20:36:00,75.5,64.6,29.82,North,0,0.0,0.0,69,0.00,,,0.00,WeatherCatV1.15B25,2013-06-04 01:36:00,
2013-06-03 20:41:00,75.2,64.3,29.82,North,0,0.0,4.0,69,0.00,,,0.00,WeatherCatV1.15B25,2013-06-04 01:41:00,
2013-06-03 20:46:00,75.0,64.1,29.81,North,0,0.0,0.0,69,0.00,,,0.00,WeatherCatV1.15B25,2013-06-04 01:46:00,
2013-06-03 20:51:00,74.7,64.2,29.82,North,0,0.0,0.0,70,0.00,,,0.00,WeatherCatV1.15B25,2013-06-04 01:51:00,
2013-06-03 20:56:00,74.5,64.1,29.82,North,0,0.0,0.0,70,0.00,,,0.00,WeatherCatV1.15B25,2013-06-04 01:56:00,
2013-06-03 21:01:00,74.3,64.3,29.82,North,0,0.0,0.0,71,0.00,,,0.00,WeatherCatV1.15B25,2013-06-04 02:01:00,
2013-06-03 21:06:00,74.1,64.1,29.83,North,0,0.0,0.0,71,0.00,,,0.00,WeatherCatV1.15B25,2013-06-04 02:06:00,
2013-06-03 21:11:00,73.9,64.3,29.83,North,0,0.0,0.0,72,0.00,,,0.00,WeatherCatV1.15B25,2013-06-04 02:11:00,
2013-06-03 21:16:00,73.8,64.2,29.83,North,0,0.0,0.0,72,0.00,,,0.00,WeatherCatV1.15B25,2013-06-04 02:16:00,
2013-06-03 21:21:00,73.6,64.0,29.84,North,0,0.0,0.0,72,0.00,,,0.00,WeatherCatV1.15B25,2013-06-04 02:21:00,
2013-06-03 21:26:00,73.4,64.2,29.83,North,0,0.0,0.0,73,0.00,,,0.00,WeatherCatV1.15B25,2013-06-04 02:26:00,
2013-06-03 21:31:00,73.2,64.0,29.83,North,0,0.0,0.0,73,0.00,,,0.00,WeatherCatV1.15B25,2013-06-04 02:31:00,
2013-06-03 21:36:00,73.1,64.3,29.83,North,0,0.0,0.0,74,0.00,,,0.00,WeatherCatV1.15B25,2013-06-04 02:36:00,
2013-06-03 21:41:00,73.0,64.2,29.83,North,0,0.0,0.0,74,0.00,,,0.00,WeatherCatV1.15B25,2013-06-04 02:41:00,
2013-06-03 21:46:00,72.8,64.0,29.84,North,0,0.0,0.0,74,0.00,,,0.00,WeatherCatV1.15B25,2013-06-04 02:46:00,
2013-06-03 21:51:00,72.7,63.9,29.84,North,0,0.0,0.0,74,0.00,,,0.00,WeatherCatV1.15B25,2013-06-04 02:51:00,
2013-06-03 21:56:00,72.6,63.4,29.84,North,0,0.0,0.0,73,0.00,,,0.00,WeatherCatV1.15B25,2013-06-04 02:56:00,
2013-06-03 22:01:00,72.6,63.4,29.85,North,0,0.0,0.0,73,0.00,,,0.00,WeatherCatV1.15B25,2013-06-04 03:01:00,
2013-06-03 22:06:00,72.5,63.3,29.85,North,0,0.0,0.0,73,0.00,,,0.00,WeatherCatV1.15B25,2013-06-04 03:06:00,
2013-06-03 22:11:00,72.5,63.3,29.85,North,0,0.0,0.0,73,0.00,,,0.00,WeatherCatV1.15B25,2013-06-04 03:11:00,
2013-06-03 22:16:00,72.4,63.2,29.86,North,0,0.0,0.0,73,0.00,,,0.00,WeatherCatV1.15B25,2013-06-04 03:16:00,
2013-06-03 22:21:00,72.2,63.0,29.86,North,0,0.0,0.0,73,0.00,,,0.00,WeatherCatV1.15B25,2013-06-04 03:21:00,
2013-06-03 22:26:00,72.1,63.0,29.86,North,0,0.0,0.0,73,0.00,,,0.00,WeatherCatV1.15B25,2013-06-04 03:26:00,
2013-06-03 22:31:00,71.9,62.8,29.86,North,0,0.0,0.0,73,0.00,,,0.00,WeatherCatV1.15B25,2013-06-04 03:31:00,
2013-06-03 22:36:00,71.8,62.7,29.87,ESE,115,0.0,0.0,73,0.00,,,0.00,WeatherCatV1.15B25,2013-06-04 03:36:00,
2013-06-03 22:41:00,71.6,62.5,29.87,ESE,115,0.0,0.0,73,0.00,,,0.00,WeatherCatV1.15B25,2013-06-04 03:41:00,
2013-06-03 22:46:00,71.5,62.4,29.87,ESE,115,0.0,0.0,73,0.00,,,0.00,WeatherCatV1.15B25,2013-06-04 03:46:00,
2013-06-03 22:51:00,71.4,62.3,29.87,North,0,0.0,0.0,73,0.00,,,0.00,WeatherCatV1.15B25,2013-06-04 03:51:00,
2013-06-03 22:56:00,71.3,62.2,29.87,North,0,0.0,0.0,73,0.00,,,0.00,WeatherCatV1.15B25,2013-06-04 03:56:00,
2013-06-03 23:01:00,71.2,62.5,29.87,North,0,0.0,0.0,74,0.00,,,0.00,WeatherCatV1.15B25,2013-06-04 04:01:00,
2013-06-03 23:06:00,71.1,62.4,29.87,North,0,0.0,0.0,74,0.00,,,0.00,WeatherCatV1.15B25,2013-06-04 04:06:00,
2013-06-03 23:11:00,70.9,62.2,29.87,North,0,0.0,0.0,74,0.00,,,0.00,WeatherCatV1.15B25,2013-06-04 04:11:00,
2013-06-03 23:16:00,70.7,62.0,29.87,North,0,0.0,0.0,74,0.00,,,0.00,WeatherCatV1.15B25,2013-06-04 04:16:00,
2013-06-03 23:21:00,70.6,62.3,29.87,North,0,0.0,0.0,75,0.00,,,0.00,WeatherCatV1.15B25,2013-06-04 04:21:00,
2013-06-03 23:26:00,70.6,61.9,29.87,North,0,0.0,0.0,74,0.00,,,0.00,WeatherCatV1.15B25,2013-06-04 04:26:00,
2013-06-03 23:31:00,70.5,62.2,29.87,North,0,0.0,0.0,75,0.00,,,0.00,WeatherCatV1.15B25,2013-06-04 04:31:00,
2013-06-03 23:36:00,70.4,62.1,29.87,North,0,0.0,0.0,75,0.00,,,0.00,WeatherCatV1.15B25,2013-06-04 04:36:00,
2013-06-03 23:41:00,70.4,62.1,29.87,North,0,0.0,0.0,75,0.00,,,0.00,WeatherCatV1.15B25,2013-06-04 04:41:00,
2013-06-03 23:46:00,70.3,62.0,29.87,North,0,0.0,2.0,75,0.00,,,0.00,WeatherCatV1.15B25,2013-06-04 04:46:00,
2013-06-03 23:51:00,70.3,62.0,29.87,North,0,0.0,0.0,75,0.00,,,0.00,WeatherCatV1.15B25,2013-06-04 04:51:00,
2013-06-03 23:56:00,70.2,61.9,29.87,North,0,0.0,0.0,75,0.00,,,0.00,WeatherCatV1.15B25,2013-06-04 04:56:00,